International Virtual Aviation Organisation

Russian Federation and Kazakhstan MCD

 

Карточка аэропорта UNOO

Внимание!
Информация на этой странице в стадии наполнения.
Если вы не увидели какой-то информации, или заметили неточность - пожалуйста сообщите нам!
Спасибо!
Команда RU-STAFF
Название аэропортаЦентральный
Название аэропорта (англ.)Tsentralny
Превышение303 ft. (92.4 m.)
Координаты54°58.02', 73°19.02'
Высота перехода800m
Эшелон переходаQFE>=751mm:FL050; QFE<751=>724:FL060; QFE<724:FL070
Коды ответчика5440-5467
Зона ОрВДНовосибирск РПИ (UNNT)
Данные METARUNOO 260530Z 14007MPS 5000 BR OVC005 M01/M01 Q1021 R07/CLRD60 NOSIG RMK OBST OBSC QFE757
Проноз погоды (TAF)UNOO 260455Z 2606/2706 15009G17MPS 3100 BR FU BKN007 BKN030CB TEMPO 2606/2608 1000 BR BKN004 BKN020CB TEMPO 2612/2624 1100 SHSNRA BKN003 BKN015CB BECMG 2615/2617 29009G14MPS
NOTAMshow/hide NOTAM
AWOS   TABLE

Информация о ВПП

ВПП Длина ВПП (м.) Покрытие Курс ВПП Частота ILS
072501Асфальтобетон65108.3
252501Асфальтобетон245110.1

Диспетчерские позиции

Позывной Наименование органа УВД Частота
UNOO_GNDОмск-Руление121.700
UNOO_TWRОмск - Старт119.000
UNOO_APPОмск - Подход131.200



Спутниковое изображение